Wind_Speed
9 9 10 9 12 11 12 11 8 8 12 16 16 11 15 15 13 14 13 9 7 11 12 20 24 26 26 24 21 20 20 18 17 15 12 11 10 10 9 9 9 9 8 6
12 12 14 17 19 17 19 19 19 16 22 16 19 11 13 15 14 16 15 14 11 9 13 19 23 24 25 24 24 23 21 19 20 17 14 12 10 9 10 8 9 10 8 7
9 7 7 12 19 21 19 17 14 17 20 15 11 11 14 11 11 12 12 10 8 7 9 16 21 22 24 24 24 24 24 24 25 21 16 15 12 11 12 11 9 11 10 9
9 7 11 13 4 8 12 13 15 16 15 14 13 10 7 9 12 12 8 5 3 4 8 12 16 20 22 24 24 25 26 27 26 20 16 14 14 13 13 11 10 11 9 8
10 12 15 18 14 8 9 14 15 16 16 14 10 7 11 3 3 2 2 1 3 4 7 13 18 21 22 23 25 25 27 27 26 23 20 17 16 15 14 12 10 10 8 7
11 14 14 19 1 4 5 14 7 8 11 10 4 9 4 4 2 2 2 3 4 2 7 12 16 20 25 25 25 25 27 27 26 23 20 19 17 15 14 12 11 9 8 7
15 16 12 16 8 7 9 1 3 3 3 3 5 4 3 1 1 1 1 1 3 8 12 16 18 19 20 22 23 26 30 28 24 22 20 19 17 15 14 12 11 10 9 8
15 13 17 6 11 13 8 5 6 7 7 6 6 2 4 5 5 4 3 3 5 7 8 15 18 20 18 19 23 30 31 27 23 22 20 19 18 16 13 12 12 11 10 9
9 12 2 13 9 14 8 8 10 10 8 6 4 3 2 2 3 3 3 4 5 7 9 10 13 15 18 18 27 28 23 22 22 22 20 19 18 16 14 12 12 12 11 10
10 14 9 12 14 9 12 12 9 9 8 6 6 5 5 4 5 5 6 6 7 8 9 10 12 13 16 22 26 25 22 21 22 22 21 19 17 16 13 13 12 11 11 10
17 12 4 12 14 16 14 11 11 10 9 8 8 6 8 8 8 8 11 9 8 10 10 11 12 14 17 22 24 22 22 22 22 20 20 20 16 16 13 11 10 11 11 10
11 11 14 15 12 16 14 15 16 13 10 10 13 10 8 7 9 11 10 10 12 11 11 12 14 16 19 21 23 23 22 21 21 21 20 19 17 14 10 10 12 11 11 9
16 14 13 8 9 8 10 11 12 14 13 12 12 10 9 7 11 11 10 11 11 12 13 15 16 17 19 22 22 22 20 20 20 20 20 19 18 17 15 11 10 10 9 10
18 13 11 11 7 9 10 12 13 14 13 12 11 11 11 11 14 15 13 12 11 13 14 16 17 18 19 20 20 21 19 21 20 19 19 19 18 17 16 17 16 14 11 10
17 18 15 10 6 8 10 12 14 12 11 10 11 10 12 11 12 13 12 11 13 15 15 16 17 18 20 21 21 21 19 19 18 17 17 18 17 17 17 16 15 16 14 11
17 13 12 12 12 13 14 14 15 13 11 7 8 11 14 14 12 12 12 14 18 17 18 18 18 20 24 23 21 19 17 19 18 18 18 18 17 18 17 16 16 16 15 14
12 11 12 12 15 15 16 15 14 13 12 11 10 13 14 14 13 13 13 14 14 15 18 20 19 24 26 26 21 18 17 18 18 18 18 18 18 17 17 17 16 16 15 15
13 14 14 12 10 10 11 12 11 11 11 13 14 15 14 13 11 13 14 16 15 15 17 18 21 24 25 24 20 18 17 18 19 18 17 18 17 16 16 16 16 15 14 13
11 13 13 12 12 12 10 10 9 11 12 17 17 14 16 15 15 14 16 15 15 15 15 18 21 21 20 21 20 17 17 18 18 17 17 17 16 16 16 16 16 15 15 15
8 9 9 10 11 9 6 6 13 12 15 17 16 15 12 13 15 15 15 15 15 14 19 19 21 20 20 22 23 18 18 19 18 17 18 17 17 17 16 16 16 16 16 16
5 4 1 2 3 4 8 13 15 13 16 17 16 14 14 14 15 16 15 11 12 13 18 21 20 19 19 20 23 17 18 19 18 18 18 18 17 17 16 16 16 16 16 15
2 3 3 3 5 6 9 13 14 16 15 14 12 14 15 15 14 14 11 9 15 17 17 18 18 20 19 21 19 16 17 17 18 17 17 17 17 17 16 16 16 16 15 15
5 5 5 5 6 9 10 10 12 15 14 14 15 16 16 16 16 14 9 10 14 19 17 16 18 22 22 20 17 15 15 16 16 16 16 16 16 17 16 16 15 15 15 15
5 6 7 8 9 10 9 8 9 10 12 11 11 15 17 15 12 11 8 17 17 21 16 16 20 22 20 17 14 14 15 15 15 15 15 15 15 15 15 15 15 14 15 15
7 8 8 7 5 4 8 10 10 10 12 10 11 12 11 11 10 14 12 14 17 18 14 16 19 22 19 15 15 15 15 16 16 16 15 15 15 15 15 14 14 14 15 15
6 4 5 6 5 7 9 11 9 11 11 10 9 10 10 9 8 13 13 13 15 16 14 14 17 19 18 15 15 16 16 15 16 16 15 15 15 15 14 13 13 14 14 14
6 5 5 4 5 8 9 10 10 11 11 11 11 12 11 10 10 11 13 14 14 15 13 13 16 18 18 16 15 15 15 15 16 15 16 15 15 15 13 13 13 13 13 14
Wind_Direction
215 213 207 237 243 227 232 238 235 266 253 273 278 266 261 275 281 270 275 272 228 225 214 207 202 201 195 190 184 180 178 175 172 160 157 151 151 144 141 135 125 116 116 108
244 234 226 248 251 247 246 245 244 256 264 268 274 277 266 260 257 261 267 274 268 246 221 212 210 205 198 187 181 175 176 170 163 151 153 149 150 151 136 129 126 123 122 119
249 228 248 259 249 243 249 239 239 238 248 273 273 270 272 272 254 264 282 284 281 256 217 205 201 196 186 176 175 172 169 164 168 164 158 154 152 156 141 133 135 120 118 114
254 233 235 252 276 282 248 242 233 248 265 277 276 282 292 296 284 292 305 297 305 247 203 191 188 184 179 179 175 168 161 164 167 162 155 151 152 153 139 140 138 130 125 123
233 244 254 273 250 220 228 255 248 249 255 273 284 287 274 50 359 6 357 342 292 285 192 175 170 173 171 168 168 163 162 163 167 168 157 157 155 158 141 146 143 130 134 137
232 238 258 259 356 220 240 262 264 259 258 265 282 274 308 67 36 79 30 356 335 181 164 163 167 167 163 165 163 164 163 161 170 167 164 161 160 154 146 152 141 137 137 136
224 242 253 261 243 173 225 248 145 212 211 211 237 291 115 148 243 291 282 287 176 178 171 174 168 167 165 166 171 166 166 171 164 165 163 160 153 154 150 148 143 151 144 135
232 240 249 171 163 210 228 171 190 205 206 224 260 208 194 222 239 237 216 185 182 169 167 180 174 170 166 173 168 168 168 159 158 160 160 156 154 152 148 147 155 160 157 151
207 218 175 179 202 211 196 207 209 220 230 261 276 251 244 230 215 201 211 187 184 175 168 171 179 177 163 161 163 159 154 153 155 159 159 160 157 153 151 159 165 166 172 170
214 236 208 202 217 215 210 218 222 216 234 225 201 195 209 229 200 192 189 191 184 174 173 170 176 175 168 163 160 152 151 159 160 161 162 163 162 163 168 174 175 176 178 175
235 244 265 240 232 228 225 225 232 233 224 225 214 218 210 210 212 203 178 174 189 185 181 178 170 167 164 161 158 157 157 162 164 167 167 165 169 174 179 182 183 182 184 179
225 213 220 242 232 223 221 223 224 231 218 230 224 224 215 205 208 203 186 185 182 181 180 176 173 167 166 167 164 161 162 164 167 169 169 166 168 163 167 179 184 177 168 174
254 253 236 246 202 185 221 230 233 229 233 229 228 231 224 199 204 199 190 192 193 186 182 172 170 168 168 170 168 166 164 165 167 166 165 167 171 169 156 150 153 160 166 165
244 250 223 204 217 217 224 241 241 245 243 237 231 217 209 201 184 189 198 195 192 181 175 172 171 171 169 168 166 167 163 165 165 166 168 171 175 174 172 169 168 168 168 168
240 225 242 244 232 235 243 243 243 235 235 223 218 217 206 202 191 189 185 185 184 180 174 175 174 173 171 169 168 164 161 166 167 167 171 175 175 175 175 176 177 172 166 169
224 225 230 231 243 254 250 246 244 244 230 217 204 210 207 200 181 178 175 177 176 180 178 179 177 174 173 170 165 166 168 168 167 168 170 173 174 174 177 179 178 177 182 180
234 231 227 241 251 252 240 239 239 232 221 215 209 198 181 170 166 174 176 178 181 173 174 175 172 176 175 173 167 169 166 167 171 172 175 176 177 181 183 185 188 190 194 192
244 260 261 250 252 241 240 233 227 221 213 205 175 161 162 165 175 171 168 167 164 164 172 175 173 173 174 175 171 170 167 171 176 178 179 181 184 186 189 192 195 196 197 195
246 245 249 254 251 244 229 216 205 194 162 147 151 164 166 167 161 160 157 163 167 167 172 168 172 167 172 175 173 173 175 177 182 185 187 186 188 192 195 198 200 201 200 198
264 258 257 253 242 223 175 153 143 139 147 148 144 152 156 155 154 157 164 172 178 178 169 168 169 171 174 179 176 181 182 183 185 186 188 191 195 197 200 202 203 204 204 205
297 297 334 128 175 125 147 150 143 147 142 148 162 163 164 159 162 161 163 170 173 172 168 169 171 174 177 181 184 187 188 188 190 192 193 197 198 200 200 202 205 207 207 209
349 35 70 104 99 110 125 136 137 137 143 152 152 151 151 157 160 167 177 185 169 168 166 171 179 180 180 178 185 188 191 194 195 195 195 197 199 201 203 205 208 210 212 208
81 93 111 116 126 125 116 129 146 150 155 159 156 161 164 166 169 171 177 175 170 171 171 176 181 180 183 177 184 190 190 193 193 196 199 200 204 208 209 209 210 212 211 208
136 138 122 120 126 135 137 143 150 153 150 151 161 165 158 159 168 181 178 179 177 177 173 176 184 185 180 181 188 191 195 198 199 200 201 203 204 205 207 207 212 212 211 211
162 145 137 146 161 162 147 146 144 144 145 149 157 162 166 175 177 180 174 172 180 174 175 189 187 189 184 188 191 194 196 198 200 201 202 203 203 204 207 213 216 215 214 214
178 191 174 165 190 176 169 170 168 162 159 155 157 167 174 175 168 169 170 171 175 175 178 184 186 191 191 196 197 198 200 201 201 201 202 203 205 207 215 219 217 214 214 216
165 163 155 162 176 183 185 186 177 176 181 177 173 174 181 178 176 172 175 175 177 182 182 183 188 192 196 200 202 202 203 204 203 205 205 206 208 213 218 217 215 216 215 215
Height
770 777 780 780 774 779 784 779 780 752 761 750 746 750 751 748 749 746 746 744 747 753 759 762 766 771 775 782 788 791 796 802 807 810 812 816 820 820 822 823 823 824 828 830
759 758 764 765 760 757 755 756 759 757 747 743 739 742 741 740 745 746 743 741 742 743 746 753 760 766 772 776 781 787 795 802 804 808 811 815 819 822 821 826 826 823 829 830
754 747 755 759 742 738 737 738 742 745 730 726 729 734 734 733 735 735 734 736 739 742 745 748 753 760 766 772 780 785 791 795 799 804 808 812 817 822 819 824 828 826 829 831
746 747 762 729 724 727 729 728 730 731 727 725 725 726 729 733 733 732 736 738 742 744 745 748 753 758 766 771 777 783 787 792 796 801 807 812 816 821 820 824 828 828 830 832
750 735 729 724 723 734 735 729 723 726 723 722 723 731 727 736 739 740 745 748 748 747 747 749 752 757 763 769 775 779 784 789 793 799 804 809 814 820 818 825 828 828 831 833
734 739 737 714 718 723 726 728 715 719 721 721 728 728 726 738 743 746 748 748 747 747 748 750 753 756 761 766 770 776 782 786 792 799 803 807 815 817 819 825 826 829 832 834
728 731 722 710 715 724 735 722 719 721 723 727 728 727 737 743 746 746 746 747 747 748 749 751 754 757 761 764 768 773 779 785 791 797 803 809 813 816 820 823 826 830 833 834
724 730 728 705 717 722 713 718 718 721 722 725 727 735 741 743 744 745 744 744 745 747 750 751 754 756 760 764 767 772 777 783 790 797 803 807 812 816 819 822 827 830 832 834
708 702 699 706 706 708 711 713 717 717 719 723 730 736 738 738 740 742 742 741 744 746 749 752 755 757 759 763 766 771 778 783 790 797 802 807 810 814 818 823 826 828 831 832
706 696 702 705 706 707 709 710 712 716 718 721 731 731 734 736 737 737 737 739 742 745 747 750 753 756 758 761 766 771 778 785 790 795 801 805 809 814 818 822 824 826 829 830
691 694 706 701 702 702 705 710 711 713 716 718 722 724 727 729 731 731 731 734 740 742 744 748 751 754 757 761 766 772 778 783 789 794 799 803 808 812 816 820 822 824 827 829
686 689 695 689 690 697 701 703 706 707 714 715 713 716 719 724 727 729 730 733 733 736 740 745 748 752 756 761 765 770 776 780 786 791 797 801 806 812 815 818 820 823 825 828
681 684 687 687 689 692 695 699 701 702 704 706 711 712 715 721 725 728 728 731 731 733 737 742 746 751 755 760 764 768 773 778 784 789 794 799 805 809 813 819 821 823 825 828
681 683 687 688 685 689 693 695 697 698 700 702 704 708 710 714 719 722 725 727 730 733 736 740 745 749 754 759 764 768 773 778 783 788 792 797 802 806 811 815 819 823 826 828
680 679 675 677 682 685 689 692 693 694 696 699 701 704 707 711 714 717 721 725 729 733 736 740 744 748 753 758 763 768 773 777 782 786 791 796 800 805 809 812 815 819 824 827
671 673 676 678 679 680 684 686 687 688 690 696 699 701 704 708 713 717 720 723 727 730 734 738 742 746 751 756 761 767 772 776 780 785 790 795 799 802 806 809 813 817 820 823
668 669 669 672 674 676 677 679 680 684 688 691 695 700 704 709 712 716 719 722 726 729 732 736 741 745 750 755 760 766 770 775 780 784 788 792 796 799 803 807 810 813 817 820
665 665 666 668 669 672 674 675 677 678 682 687 692 698 703 706 709 714 718 722 726 729 733 736 740 744 749 754 759 764 768 774 779 782 786 790 793 797 800 804 807 810 813 816
665 665 665 665 667 668 669 671 673 676 681 685 692 696 700 705 709 713 717 722 725 728 732 736 739 744 749 753 758 763 767 771 776 780 784 787 791 794 797 800 803 806 809 812
665 664 663 662 663 664 666 670 673 677 681 686 692 697 701 705 708 713 717 720 723 726 730 734 738 743 747 752 756 760 764 768 772 776 780 783 787 790 793 796 799 802 804 807
666 666 662 662 666 664 666 670 673 678 682 687 692 695 699 703 708 712 716 719 723 725 729 732 737 741 746 750 754 758 761 765 769 772 775 779 782 785 788 791 794 797 799 802
666 664 664 666 665 667 670 672 676 680 684 689 693 695 699 704 708 712 714 716 721 724 728 732 735 739 743 747 752 755 759 762 765 768 771 774 777 781 784 787 789 792 795 797
666 668 670 670 670 671 673 676 679 681 684 688 691 694 697 701 705 709 712 716 719 722 726 729 733 736 740 745 749 752 755 758 761 764 767 770 773 776 779 782 785 788 790 792
671 672 673 673 673 674 676 679 681 683 685 688 691 694 696 700 705 707 710 713 716 719 723 726 729 733 738 743 746 749 752 755 758 761 764 767 770 773 776 778 781 783 785 787
672 673 673 673 673 675 677 679 682 685 687 689 692 694 697 699 702 706 709 711 713 717 721 724 727 731 736 740 743 746 749 752 754 757 760 763 766 769 772 774 776 778 780 781
670 670 671 672 673 675 677 679 680 683 685 688 691 694 696 699 701 704 707 709 712 716 719 722 725 729 733 737 740 743 745 748 751 754 756 759 762 765 767 769 771 773 775 776
668 670 670 672 672 674 675 677 679 681 684 686 688 692 695 697 700 702 705 707 710 714 717 719 723 726 730 733 736 739 741 744 747 749 752 755 758 760 762 764 766 768 770 771